Weather History for Brownwood, TX

Change the Weather History Date:

Friday, November 2, 2012

  Actual Average (KABI) Record (KABI)
Temperature  
Mean Temperature 66 °F 60 °F  
Max Temperature 86 °F 72 °F 84 °F (2001)
Min Temperature 46 °F 49 °F 25 °F (1991)
Degree Days  
Heating Degree Days 0 6  
Month to date heating degree days 12  
Since 1 July heating degree days 116  
Cooling Degree Days 1 2  
Month to date cooling degree days 4  
Year to date cooling degree days 2393  
Growing Degree Days 16 (Base 50)    
Moisture  
Dew Point 48 °F    
Average Humidity 55    
Maximum Humidity 87    
Minimum Humidity 22    
Precipitation  
Precipitation 0.00 in 0.06 in 2.43 in (1975)
Month to date precipitation 0.13  
Year to date precipitation 22.31  
Sea Level Pressure  
Sea Level Pressure 29.98 in    
Wind  
Wind Speed 5 mph (South)    
Max Wind Speed 15 mph    
Max Gust Speed 22 mph    
Visibility 10 miles    
Events      
T = Trace of Precipitation, MM = Missing Value Source: NWS Daily Summary

Daily Weather History Graph

Daily Weather History Graph

Search for Another Location

Airport:

Trip Planner

Search our weather history database for the weather conditions in past years. The results will help you decide how hot, cold, wet, or windy it might be!

Date:

Astronomy

Nov. 02, 2012 Rise Set
Actual Time 7:53 AM CDT 6:44 PM CDT
Civil Twilight 7:28 AM CDT 7:10 PM CDT
Nautical Twilight 6:59 AM CDT 7:39 PM CDT
Astronomical Twilight 6:30 AM CDT 8:07 PM CDT
Moon 9:40 PM CDT (11/2) 11:07 AM CDT (11/2)
Length of Visible Light 11h 42m
Length of Day
10h 51m
Waning Gibbous, 87% of the Moon is Illuminated
Nov 2
Waning Gibbous
Nov 6
Last Quarter
Nov 13
New
Nov 20
First Quarter
Nov 28
Full

Hourly Weather History & Observations

Time (CDT) Temp. Heat Index Dew Point Humidity Pressure Visibility Wind Dir Wind Speed Gust Speed Precip Events Conditions
12:15 AM 55.4 °F - 39.2 °F 54% 30.01 in 10.0 mi ESE 5.8 mph - N/A   Clear
12:35 AM 55.4 °F - 39.2 °F 54% 30.02 in 10.0 mi Calm Calm - N/A   Clear
12:55 AM 53.6 °F - 39.2 °F 58% 30.01 in 10.0 mi Calm Calm - N/A   Clear
1:15 AM 51.8 °F - 39.2 °F 62% 30.01 in 10.0 mi SE 4.6 mph - N/A   Clear
1:35 AM 53.6 °F - 41.0 °F 62% 30.00 in 10.0 mi SSE 4.6 mph - N/A   Clear
1:55 AM 55.4 °F - 44.6 °F 67% 30.00 in 10.0 mi SE 3.5 mph - N/A   Clear
2:15 AM 55.4 °F - 44.6 °F 67% 30.00 in 10.0 mi Calm Calm - N/A   Clear
2:35 AM 51.8 °F - 41.0 °F 67% 30.00 in 10.0 mi Calm Calm - N/A   Clear
2:55 AM 50.0 °F - 41.0 °F 71% 29.99 in 10.0 mi South 4.6 mph - N/A   Clear
3:15 AM 53.6 °F - 44.6 °F 72% 30.00 in 10.0 mi Calm Calm - N/A   Clear
3:35 AM 51.8 °F - 44.6 °F 76% 30.00 in 10.0 mi Calm Calm - N/A   Clear
3:55 AM 50.0 °F - 41.0 °F 71% 29.99 in 10.0 mi South 3.5 mph - N/A   Clear
4:15 AM 51.8 °F - 42.8 °F 71% 30.00 in 10.0 mi Calm Calm - N/A   Clear
4:35 AM 51.8 °F - 44.6 °F 76% 30.00 in 10.0 mi Calm Calm - N/A   Clear
4:55 AM 48.2 °F - 41.0 °F 76% 30.00 in 10.0 mi Calm Calm - N/A   Clear
5:15 AM 48.2 °F - 41.0 °F 76% 30.00 in 10.0 mi Calm Calm - N/A   Clear
5:35 AM 48.2 °F - 41.0 °F 76% 30.00 in 10.0 mi SE 3.5 mph - N/A   Clear
5:55 AM 50.0 °F - 44.6 °F 82% 30.00 in 10.0 mi Calm Calm - N/A   Clear
6:15 AM 50.0 °F - 44.6 °F 82% 30.00 in 10.0 mi North 4.6 mph - N/A   Clear
6:35 AM 46.4 °F - 41.0 °F 81% 30.01 in 10.0 mi Calm Calm - N/A   Clear
6:55 AM 46.4 °F - 41.0 °F 81% 30.01 in 10.0 mi Calm Calm - N/A   Clear
7:15 AM 48.2 °F - 44.6 °F 87% 30.01 in 10.0 mi Calm Calm - N/A   Clear
7:35 AM 48.2 °F - 41.0 °F 76% 30.01 in 10.0 mi NNW 3.5 mph - N/A   Clear
7:55 AM 48.2 °F - 42.8 °F 82% 30.01 in 10.0 mi Calm Calm - N/A   Clear
8:15 AM 48.2 °F - 42.8 °F 82% 30.02 in 10.0 mi Calm Calm - N/A   Clear
8:55 AM 53.6 °F - 46.4 °F 77% 30.03 in 10.0 mi Calm Calm - N/A   Clear
9:15 AM 57.2 °F - 48.2 °F 72% 30.03 in 10.0 mi Calm Calm - N/A   Clear
9:35 AM 64.4 °F - 55.4 °F 73% 30.03 in 10.0 mi South 6.9 mph - N/A   Clear
9:55 AM 66.2 °F - 55.4 °F 68% 30.04 in 10.0 mi South 8.1 mph - N/A   Clear
10:15 AM 66.2 °F - 55.4 °F 68% 30.04 in 10.0 mi South 6.9 mph - N/A   Clear
10:35 AM 71.6 °F - 57.2 °F 60% 30.04 in 10.0 mi South 10.4 mph - N/A   Clear
10:55 AM 73.4 °F - 57.2 °F 57% 30.04 in 10.0 mi South 15.0 mph 19.6 mph N/A   Clear
11:15 AM 75.2 °F - 57.2 °F 53% 30.03 in 10.0 mi South 10.4 mph 16.1 mph N/A   Clear
11:35 AM 77.0 °F - 57.2 °F 50% 30.03 in 7.0 mi SSW 15.0 mph 20.7 mph N/A   Clear
11:55 AM 77.0 °F - 57.2 °F 50% 30.03 in 10.0 mi SSW 15.0 mph - N/A   Clear
12:15 PM 78.8 °F - 57.2 °F 47% 30.02 in 7.0 mi South 15.0 mph 20.7 mph N/A   Clear
12:35 PM 80.6 °F 80.8 °F 57.2 °F 45% 30.01 in 10.0 mi SSW 15.0 mph 18.4 mph N/A   Clear
12:55 PM 80.6 °F 80.5 °F 55.4 °F 42% 30.00 in 10.0 mi South 12.7 mph 20.7 mph N/A   Clear
1:15 PM 82.4 °F 81.7 °F 55.4 °F 39% 29.99 in 10.0 mi SW 11.5 mph - N/A   Clear
1:35 PM 82.4 °F 81.4 °F 53.6 °F 37% 29.98 in 10.0 mi SSW 12.7 mph 19.6 mph N/A   Clear
1:55 PM 82.4 °F - 51.8 °F 35% 29.97 in 10.0 mi SSW 13.8 mph 19.6 mph N/A   Clear
2:15 PM 84.2 °F - 50.0 °F 30% 29.96 in 10.0 mi SW 11.5 mph 17.3 mph N/A   Clear
2:35 PM 84.2 °F - 51.8 °F 33% 29.95 in 10.0 mi SSW 15.0 mph 19.6 mph N/A   Clear
2:55 PM 84.2 °F - 50.0 °F 30% 29.94 in 10.0 mi SSW 11.5 mph 21.9 mph N/A   Clear
3:15 PM 84.2 °F - 50.0 °F 30% 29.93 in 10.0 mi South 9.2 mph 19.6 mph N/A   Clear
3:55 PM 86.0 °F - 46.4 °F 25% 29.92 in 10.0 mi SSW 15.0 mph - N/A   Clear
4:15 PM 86.0 °F - 44.6 °F 23% 29.92 in 10.0 mi South 11.5 mph - N/A   Clear
4:35 PM 84.2 °F - 41.0 °F 22% 29.91 in 10.0 mi SSW 10.4 mph 17.3 mph N/A   Clear
4:55 PM 84.2 °F - 46.4 °F 27% 29.91 in 10.0 mi SSW 12.7 mph - N/A   Clear
5:15 PM 84.2 °F - 44.6 °F 25% 29.91 in 10.0 mi SSW 12.7 mph 17.3 mph N/A   Clear
5:55 PM 82.4 °F - 46.4 °F 28% 29.91 in 10.0 mi South 9.2 mph - N/A   Clear
6:15 PM 82.4 °F - 48.2 °F 30% 29.91 in 10.0 mi South 6.9 mph - N/A   Clear
6:35 PM 80.6 °F - 48.2 °F 32% 29.92 in 10.0 mi SSE 6.9 mph - N/A   Clear
6:55 PM 77.0 °F - 48.2 °F 36% 29.92 in 10.0 mi SSE 8.1 mph - N/A   Clear
7:15 PM 75.2 °F - 50.0 °F 41% 29.93 in 10.0 mi SE 6.9 mph - N/A   Clear
7:35 PM 75.2 °F - 50.0 °F 41% 29.93 in 10.0 mi SE 9.2 mph - N/A   Clear
7:55 PM 73.4 °F - 50.0 °F 44% 29.93 in 10.0 mi SE 9.2 mph - N/A   Clear
8:15 PM 73.4 °F - 50.0 °F 44% 29.94 in 10.0 mi SSE 8.1 mph - N/A   Clear
8:35 PM 71.6 °F - 50.0 °F 46% 29.94 in 10.0 mi SSE 6.9 mph - N/A   Clear
8:55 PM 71.6 °F - 50.0 °F 46% 29.95 in 10.0 mi SSE 6.9 mph - N/A   Clear
9:15 PM 69.8 °F - 50.0 °F 49% 29.96 in 10.0 mi SSE 6.9 mph - N/A   Clear
9:35 PM 68.0 °F - 50.0 °F 52% 29.97 in 10.0 mi SSE 6.9 mph - N/A   Clear
9:55 PM 68.0 °F - 50.0 °F 52% 29.97 in 10.0 mi SSE 6.9 mph - N/A   Clear
10:15 PM 68.0 °F - 50.0 °F 52% 29.97 in 10.0 mi SSE 5.8 mph - N/A   Clear
10:55 PM 66.2 °F - 51.8 °F 60% 29.98 in 10.0 mi SSE 6.9 mph - N/A   Clear
11:15 PM 66.2 °F - 51.8 °F 60% 29.98 in 10.0 mi SSE 6.9 mph - N/A   Clear
11:35 PM 66.2 °F - 53.6 °F 64% 29.99 in 10.0 mi SSE 5.8 mph - N/A   Clear
11:55 PM 64.4 °F - 53.6 °F 68% 29.99 in 10.0 mi SSE 3.5 mph - N/A   Clear